Index of /20260426/WXO-DD/model_gdps/15km/00/034
Name Last modified Size Description
Parent Directory -
20260426T00Z_MSC_GDPS_AirTemp_AGL-120m_LatLon0.15_PT034H.grib2 2026-04-26 03:55 909K
20260426T00Z_MSC_GDPS_AirTemp_AGL-2m_LatLon0.15_PT034H.grib2 2026-04-26 03:55 1.0M
20260426T00Z_MSC_GDPS_AirTemp_AGL-40m_LatLon0.15_PT034H.grib2 2026-04-26 03:55 810K
20260426T00Z_MSC_GDPS_AirTemp_AGL-80m_LatLon0.15_PT034H.grib2 2026-04-26 03:55 917K
20260426T00Z_MSC_GDPS_Albedo_Sfc_LatLon0.15_PT034H.grib2 2026-04-26 03:55 242K
20260426T00Z_MSC_GDPS_ConvectivePrecip-Accum_Sfc_LatLon0.15_PT034H.grib2 2026-04-26 03:55 2.7M
20260426T00Z_MSC_GDPS_DewPointDepression_AGL-2m_LatLon0.15_PT034H.grib2 2026-04-26 03:55 758K
20260426T00Z_MSC_GDPS_DewPoint_AGL-2m_LatLon0.15_PT034H.grib2 2026-04-26 03:55 610K
20260426T00Z_MSC_GDPS_DownwardLongwaveRadiationFlux-Accum_Sfc_LatLon0.15_PT034H.grib2 2026-04-26 03:55 780K
20260426T00Z_MSC_GDPS_DownwardShortwaveRadiationFlux-Accum_Sfc_LatLon0.15_PT034H.grib2 2026-04-26 03:55 945K
20260426T00Z_MSC_GDPS_FreezingRain-Accum1h_Sfc_LatLon0.15_PT034H.grib2 2026-04-26 03:55 47K
20260426T00Z_MSC_GDPS_FreezingRain-Accum_Sfc_LatLon0.15_PT034H.grib2 2026-04-26 03:55 190K
20260426T00Z_MSC_GDPS_IcePellets-Accum1h_Sfc_LatLon0.15_PT034H.grib2 2026-04-26 03:55 15K
20260426T00Z_MSC_GDPS_IcePellets-Accum_Sfc_LatLon0.15_PT034H.grib2 2026-04-26 03:55 71K
20260426T00Z_MSC_GDPS_LatentHeatNetFlux_Sfc_LatLon0.15_PT034H.grib2 2026-04-26 03:55 556K
20260426T00Z_MSC_GDPS_NetLongwaveRadiationFlux-Accum_Sfc_LatLon0.15_PT034H.grib2 2026-04-26 03:55 1.0M
20260426T00Z_MSC_GDPS_NetShortwaveRadiationFlux-Accum_Sfc_LatLon0.15_PT034H.grib2 2026-04-26 03:55 921K
20260426T00Z_MSC_GDPS_O3MixingRatio_LatLon0.15_PT034H.grib2 2026-04-26 04:51 2.0M
20260426T00Z_MSC_GDPS_O3_EAtm_LatLon0.15_PT034H.grib2 2026-04-26 04:51 2.5M
20260426T00Z_MSC_GDPS_PlanetaryBoundaryLayerHeight_Sfc_LatLon0.15_PT034H.grib2 2026-04-26 03:55 2.5M
20260426T00Z_MSC_GDPS_Precip-Accum1h_Sfc_LatLon0.15_PT034H.grib2 2026-04-26 03:55 3.3M
20260426T00Z_MSC_GDPS_Precip-Accum_Sfc_LatLon0.15_PT034H.grib2 2026-04-26 03:55 4.6M
20260426T00Z_MSC_GDPS_PrecipRate_Sfc_LatLon0.15_PT034H.grib2 2026-04-26 03:55 3.1M
20260426T00Z_MSC_GDPS_Pressure_MSL_LatLon0.15_PT034H.grib2 2026-04-26 03:55 723K
20260426T00Z_MSC_GDPS_Pressure_Sfc_LatLon0.15_PT034H.grib2 2026-04-26 03:55 1.1M
20260426T00Z_MSC_GDPS_RadiativeTemp_Sfc_LatLon0.15_PT034H.grib2 2026-04-26 03:55 500K
20260426T00Z_MSC_GDPS_Rain-Accum1h_Sfc_LatLon0.15_PT034H.grib2 2026-04-26 03:55 1.7M
20260426T00Z_MSC_GDPS_Rain-Accum_Sfc_LatLon0.15_PT034H.grib2 2026-04-26 03:55 3.5M
20260426T00Z_MSC_GDPS_RelativeHumidity_AGL-2m_LatLon0.15_PT034H.grib2 2026-04-26 03:55 1.1M
20260426T00Z_MSC_GDPS_Runoff-Accum_Sfc_LatLon0.15_PT034H.grib2 2026-04-26 03:55 101K
20260426T00Z_MSC_GDPS_SensibleHeatNetFlux_Sfc_LatLon0.15_PT034H.grib2 2026-04-26 03:55 491K
20260426T00Z_MSC_GDPS_Snow-Accum1h_Sfc_LatLon0.15_PT034H.grib2 2026-04-26 03:55 1.0M
20260426T00Z_MSC_GDPS_Snow-Accum_Sfc_LatLon0.15_PT034H.grib2 2026-04-26 03:55 1.8M
20260426T00Z_MSC_GDPS_SnowDepth_Sfc_LatLon0.15_PT034H.grib2 2026-04-26 03:55 1.8M
20260426T00Z_MSC_GDPS_SoilTemp_DBS-0to10cm_LatLon0.15_PT034H.grib2 2026-04-26 03:55 500K
20260426T00Z_MSC_GDPS_SoilTemp_Sfc_LatLon0.15_PT034H.grib2 2026-04-26 03:55 588K
20260426T00Z_MSC_GDPS_SoilVolumetricWaterContent_DBS-0to10cm_LatLon0.15_PT034H.grib2 2026-04-26 03:55 571K
20260426T00Z_MSC_GDPS_SoilVolumetricWaterContent_DBS-0to1cm_LatLon0.15_PT034H.grib2 2026-04-26 03:55 653K
20260426T00Z_MSC_GDPS_SpecificHumidity_AGL-120m_LatLon0.15_PT034H.grib2 2026-04-26 03:55 1.1M
20260426T00Z_MSC_GDPS_SpecificHumidity_AGL-2m_LatLon0.15_PT034H.grib2 2026-04-26 03:55 1.2M
20260426T00Z_MSC_GDPS_SpecificHumidity_AGL-40m_LatLon0.15_PT034H.grib2 2026-04-26 03:55 1.1M
20260426T00Z_MSC_GDPS_SpecificHumidity_AGL-80m_LatLon0.15_PT034H.grib2 2026-04-26 03:55 1.1M
20260426T00Z_MSC_GDPS_SpecificHumidity_Sfc_LatLon0.15_PT034H.grib2 2026-04-26 03:55 673K
20260426T00Z_MSC_GDPS_TotalCloudCover_Sfc_LatLon0.15_PT034H.grib2 2026-04-26 03:55 838K
20260426T00Z_MSC_GDPS_UVIndex-ClearSky_Sfc_LatLon0.15_PT034H.grib2 2026-04-26 04:51 1.1M
20260426T00Z_MSC_GDPS_UVIndex_Sfc_LatLon0.15_PT034H.grib2 2026-04-26 04:51 1.5M
20260426T00Z_MSC_GDPS_UpwardLongwaveRadiationFlux_NTAtm_LatLon0.15_PT034H.grib2 2026-04-26 03:55 841K
20260426T00Z_MSC_GDPS_WindDir_AGL-10m_LatLon0.15_PT034H.grib2 2026-04-26 03:55 1.3M
20260426T00Z_MSC_GDPS_WindDir_AGL-120m_LatLon0.15_PT034H.grib2 2026-04-26 03:55 1.3M
20260426T00Z_MSC_GDPS_WindDir_AGL-40m_LatLon0.15_PT034H.grib2 2026-04-26 03:55 1.4M
20260426T00Z_MSC_GDPS_WindDir_AGL-80m_LatLon0.15_PT034H.grib2 2026-04-26 03:55 1.4M
20260426T00Z_MSC_GDPS_WindDir_IsbL-0700_LatLon0.15_PT034H.grib2 2026-04-26 03:55 1.6M
20260426T00Z_MSC_GDPS_WindGust-Max_AGL-10m_LatLon0.15_PT034H.grib2 2026-04-26 03:55 2.2M
20260426T00Z_MSC_GDPS_WindGust-Min_AGL-10m_LatLon0.15_PT034H.grib2 2026-04-26 03:55 2.2M
20260426T00Z_MSC_GDPS_WindGust_AGL-10m_LatLon0.15_PT034H.grib2 2026-04-26 03:55 2.2M
20260426T00Z_MSC_GDPS_WindSpeed_AGL-10m_LatLon0.15_PT034H.grib2 2026-04-26 03:55 1.1M
20260426T00Z_MSC_GDPS_WindSpeed_AGL-120m_LatLon0.15_PT034H.grib2 2026-04-26 03:55 1.2M
20260426T00Z_MSC_GDPS_WindSpeed_AGL-40m_LatLon0.15_PT034H.grib2 2026-04-26 03:55 1.2M
20260426T00Z_MSC_GDPS_WindSpeed_AGL-80m_LatLon0.15_PT034H.grib2 2026-04-26 03:55 1.2M
20260426T00Z_MSC_GDPS_WindSpeed_IsbL-0700_LatLon0.15_PT034H.grib2 2026-04-26 03:55 1.5M
20260426T00Z_MSC_GDPS_WindU_AGL-10m_LatLon0.15_PT034H.grib2 2026-04-26 03:55 1.6M
20260426T00Z_MSC_GDPS_WindU_AGL-120m_LatLon0.15_PT034H.grib2 2026-04-26 03:55 970K
20260426T00Z_MSC_GDPS_WindU_AGL-40m_LatLon0.15_PT034H.grib2 2026-04-26 03:55 967K
20260426T00Z_MSC_GDPS_WindU_AGL-80m_LatLon0.15_PT034H.grib2 2026-04-26 03:55 971K
20260426T00Z_MSC_GDPS_WindU_IsbL-0700_LatLon0.15_PT034H.grib2 2026-04-26 03:55 1.2M
20260426T00Z_MSC_GDPS_WindV_AGL-10m_LatLon0.15_PT034H.grib2 2026-04-26 03:55 1.6M
20260426T00Z_MSC_GDPS_WindV_AGL-120m_LatLon0.15_PT034H.grib2 2026-04-26 03:55 972K
20260426T00Z_MSC_GDPS_WindV_AGL-40m_LatLon0.15_PT034H.grib2 2026-04-26 03:55 968K
20260426T00Z_MSC_GDPS_WindV_AGL-80m_LatLon0.15_PT034H.grib2 2026-04-26 03:55 972K
20260426T00Z_MSC_GDPS_WindV_IsbL-0700_LatLon0.15_PT034H.grib2 2026-04-26 03:55 1.2M